Rbgn^[z[y[W
メイン
   新天体発見情報
     Comet P/2016 A2 = 2024 RU145 (Christensen)
投稿するにはまず登録を

スレッド表示 | 新しいものから 前のトピック | 次のトピック | 下へ
投稿者 スレッド
佐藤裕久
投稿日時: 2024-10-29 11:57
モデレータ
登録日: 2005-6-12
居住地: 日本
投稿: 2670
オンライン
Comet P/2016 A2 = 2024 RU145 (Christensen)

9月8日UT、ArizonaのMt Lemmonサーベイの1.5-m 反射望遠鏡で得たCCD画像から小惑星状天体が発見
され、2024 RU145と仮符号がつけられた(MPEC2 024-T298)天体をP. VanWylenとJ. Maiknerによって、
P/2016 A2の偶発的な検出として同定された。
小林隆男氏(群馬県大泉町)は、小惑星センターの"isolated tracklet file"にある、2014年12月27日、
HaleakalaのPan-STARRS1 1.8-m Ritchey-Chretien反射望遠鏡によってP/2016 A2の発見前観測(予備
符号 P10hax1)と同定した。
嶋邦博氏(東京都府中市)は、9月30.61日UT、五藤光学の八ヶ岳天体観測所の0.4-m f/8.0+f/6.5 Reducer
+CCDで、20.3等と観測した。
NK 5033 (= ICQ's Comet Handbook 2024)の中野主一氏の予報に対する修正値は、Delta(T) = 
-2.67 daysであった。
MPC 100282のG. V. Williamsの予報に対する修正値は、Delta(T) = -0.50 dayであった。
彗星年表 2022の佐藤裕久の参考軌道要素の修正値は、Delta(T) = -3.09 daysであった。

検出位置は次のとおり、

     2024 UT             R.A. (2000) Decl.       Mag.
     Sept. 8.29541   23 55 09.16   +35 42 02.4   21.0
           8.30118   23 55 08.87   +35 42 03.4   20.4
           8.30693   23 55 08.65   +35 42 04.1   20.7
           8.31269   23 55 08.42   +35 42 04.7   21.1
          30.23257   23 39 30.34   +35 31 19.7   21.0
          30.23793   23 39 30.14   +35 31 19.0   20.6
          30.24329   23 39 29.88   +35 31 17.8   21.1
          30.24864   23 39 29.63   +35 31 16.7   20.8

Pan-STARRS1による発見前の位置は次のとおり、

     2014 UT             R.A. (2000) Decl.       Mag.
     Dec. 27.23394    0 52 55.83   +36 55 32.6   20.6
          27.24622    0 52 56.23   +36 55 28.3   20.6
          27.25852    0 52 56.65   +36 55 23.6   20.7

MPCの連結軌道要素、位置推算表は次のとおり、

Orbital elements:
    P/2016 A2 (Christensen)                                                     
Epoch 2024 Oct. 17.0 TT = JDT 2460600.5                                         
T 2025 Oct. 22.50377 TT                                 Rudenko                 
q   3.4601836            (2000.0)            P               Q                  
n   0.09511380     Peri.  141.33932     +0.23261369     -0.88067634             
a   4.7530645      Node   291.62475     +0.74495986     +0.43412110             
e   0.2720100      Incl.   26.35416     +0.62524049     -0.18959972             
P  10.4                                                                         
From 64 observations 2016 Jan. 2-2024 Oct. 3, mean residual 0".7.               
                                                                                
Ephemeris:
Date    TT    R. A. (2000) Decl.     Delta      r    Elong.  Phase   m1
2024 09 22    23 45 28.4 +35 47 12   3.0579  3.9128   143.8     8.7  19.9
...
2024 10 07    23 34 50.5 +35 08 22   3.0180  3.8833   145.5     8.4  19.8
...
2024 10 15    23 29 54.4 +34 31 23   3.0194  3.8679   143.6     8.8  19.8
...
2024 10 21    23 26 46.6 +33 58 04   3.0304  3.8564   141.1     9.3  19.8
2024 10 22    23 26 18.6 +33 52 08   3.0330  3.8545   140.6     9.4  19.8
2024 10 23    23 25 51.7 +33 46 07   3.0359  3.8526   140.1     9.5  19.8
...
2024 10 29    23 23 32.3 +33 08 23   3.0579  3.8412   136.6    10.2  19.8
...
2024 11 06    23 21 30.9 +32 15 26   3.0992  3.8263   131.3    11.2  19.8
...
2024 11 21    23 21 15.0 +30 37 18   3.2082  3.7987   119.9    13.0  19.8

(MPEC 2024-U34、CBET 5463、oaa-comet 7100)

スレッド表示 | 新しいものから 前のトピック | 次のトピック | トップ

投稿するにはまず登録を
 
© 1999 Tsutomu Seki.